Miscellaneous Local Product
Issued by NWS Hastings, NE

Home | Current Version | Previous Version | Graphics & Text | Print | Product List | Glossary On
Versions: 1 2 3 4 5 6 7 8 9 10 11 12 13 14 15 16 17 18 19 20 21 22 23 24 25 26 27 28 29 30 31 32 33 34 35 36 37 38 39 40 41 42 43 44 45 46 47 48 49 50
000
AXUS43 KGID 302002
MISGRI

GID CWA HOURLY WEATHER ROUNDUP
NATIONAL WEATHER SERVICE HASTINGS NE
300 PM CDT WED JUL 30 2014

NOTE: "FAIR" INDICATES FEW OR NO CLOUDS BELOW 12,000 FEET WITH NO
SIGNIFICANT WEATHER AND/OR OBSTRUCTIONS TO VISIBILITY.

...SOUTH CENTRAL NEBRASKA...

CITY           SKY/WX    TMP DP  RH WIND       PRES   REMARKS
GRAND ISLAND   SUNNY     80  55  42 VRB5      30.16F
HASTINGS       MOSUNNY   76  52  43 NE7       30.17F
KEARNEY        MOSUNNY   79  55  44 NE7       30.17F
ORD            MOSUNNY   78  55  44 SW3       30.15F
YORK           PTSUNNY   75  55  50 N6        30.16S
AURORA         PTSUNNY   78  54  44 E3        30.16F
LEXINGTON      CLOUDY    77  55  47 SE3       30.18S
HOLDREGE       MOSUNNY   77  55  46 E5        30.17F
HEBRON         MOSUNNY   80  48  32 E6        30.15S

...NEBRASKA PANHANDLE...

CITY           SKY/WX    TMP DP  RH WIND       PRES   REMARKS
CHADRON        PTSUNNY   80  48  32 SW8       30.19F
ALLIANCE       PTSUNNY   77  50  38 NE7       30.24S
SCOTTSBLUFF    CLOUDY    75  54  47 MISG      30.26S
SIDNEY         CLOUDY    73  55  53 S7        30.29F

...WESTERN AND NORTH CENTRAL NEBRASKA...

CITY           SKY/WX    TMP DP  RH WIND       PRES   REMARKS
VALENTINE      MOSUNNY   86  49  27 NE5       30.16F
AINSWORTH      PTSUNNY   78  49  36 SW5       30.17F
ONEILL         PTSUNNY   78  56  46 NE7       30.16S
BROKEN BOW     MOSUNNY   81  53  37 VRB7      30.17F
IMPERIAL       PTSUNNY   75  56  51 VRB3      30.23F
NORTH PLATTE   MOSUNNY   82  50  32 NE7       30.18F
MCCOOK         PTSUNNY   78  56  46 SE8       30.20F

...EASTERN NEBRASKA...

CITY           SKY/WX    TMP DP  RH WIND       PRES   REMARKS
NORFOLK        PTSUNNY   80  53  39 NE6       30.14F
SO SIOUX CITY  MOSUNNY   82  55  39 NE3       30.13F
TEKAMAH        MOSUNNY   81  52  36 E7        30.12F
ALBION         MOSUNNY   77  55  46 CALM      30.16S
OMAHA EPPLEY   MOSUNNY   81  53  37 N8        30.12F
OFFUTT AFB     SUNNY     81  53  37 N7        30.12F
MILLARD        MOSUNNY   79  51  38 CALM      30.12S
LINCOLN        MOSUNNY   81  49  32 N7        30.14F
NEBRASKA CITY  MOSUNNY   78  51  38 CALM      30.13S
BEATRICE       MOSUNNY   78  55  44 NE6       30.13F
FALLS CITY     PTSUNNY   80  54  40 NE9       30.11F

...NORTHERN KANSAS...

CITY           SKY/WX    TMP DP  RH WIND       PRES   REMARKS
GOODLAND       CLOUDY    68  56  65 NE10      30.27R
HILL CITY      CLOUDY    75  56  51 VRB7      30.18F
NORTON         MOCLDY    75  50  41 NE9       30.18S
PHILLIPSBURG   MOSUNNY   75  57  53 E8        30.17F
SMITH CENTER   MOSUNNY   75  57  53 E8        30.16F
HAYS           CLOUDY    72  57  60 E10       30.17S
RUSSELL        CLOUDY    71  61  70 NE9       30.14F
CONCORDIA      PTSUNNY   77  58  51 VRB7      30.14F
SALINA         CLOUDY    71  62  73 E8        30.13F
TOPEKA         CLOUDY    79  56  45 NE6       30.11F



USA.gov is the U.S. government's official web portal to all federal, state and local government web resources and services.